Regional Weather Roundup
Issued by NWS Newport/Morehead, NC

Current Version | Previous Version | Text Only | Print | Product List | Glossary On
Versions: 1 2 3 4 5 6 7 8 9 10 11 12 13 14 15 16 17 18 19 20 21 22 23 24 25 26 27 28 29 30 31 32 33 34 35 36 37 38 39 40 41 42 43 44 45 46 47 48 49 50
000 ASUS42 KMHX 281725 RWRMHX WEATHER ROUNDUP FOR EASTERN NORTH CAROLINA NATIONAL WEATHER SERVICE NEWPORT/MOREHEAD CITY NC 100 PM EDT THU JUL 28 2016 NOTE: "FAIR" INDICATES FEW OR NO CLOUDS BELOW 12,000 FEET WITH NO SIGNIFICANT WEATHER AND/OR OBSTRUCTIONS TO VISIBILITY NCZ015>017-031-032-045>047-102-103-281800- NORTH COAST CITY SKY/WX TMP DP RH WIND PRES REMARKS EDENTON SUNNY 93 77 58 SW5 29.90F HX 107 ELIZABETH CITY SUNNY 92 79 65 S9 29.90F HX 108 KITTY HAWK SUNNY 98 77 52 S5 29.89F HX 113 MANTEO N/A 90 83 80 S9 29.91F HX 112 $$ NCZ045>047-081-094-103-104-281800- CENTRAL COAST CITY SKY/WX TMP DP RH WIND PRES REMARKS FRISCO SUNNY 88 81 79 SW8 29.93F HX 106 $$ NCZ095-097-098-100-101-281800- SOUTHERN COAST CITY SKY/WX TMP DP RH WIND PRES REMARKS BEAUFORT NOT AVBL CEDAR ISLAND NOT AVBL JACKSONVILLE SUNNY 95 75 52 SW8 29.93S HX 107 PINEY ISLAND NOT AVBL WILMINGTON SUNNY 95 72 47 W13 29.95S HX 103 $$ NCZ011>013-027>030-043-044-078>080-089-090>093-098-281800- COASTAL PLAIN CITY SKY/WX TMP DP RH WIND PRES REMARKS AHOSKIE SUNNY 90 79 70 S3 29.90F HX 106 CLINTON SUNNY 96 72 45 S8 29.93S HX 104 ELIZABETHTOWN SUNNY 94 71 45 SW7 29.94F HX 101 GOLDSBORO SUNNY 97 72 45 SW14 29.90F HX 106 GREENVILLE SUNNY 95 79 59 W9 29.93S HX 112 HAVELOCK MOSUNNY 95 76 53 W10 29.93F HX 108 KENANSVILLE NOT AVBL KINSTON SUNNY 95 73 49 S12 29.92F HX 105 NEW BERN SUNNY 95 77 55 SW8 29.93F HX 109 RICHLANDS MOSUNNY 98 76 49 VRB7 29.93F HX 112 ROCKY MOUNT MOSUNNY 94 78 60 SW8 29.91F HX 110 WASHINGTON SUNNY 93 78 62 W6 29.90F HX 109 WHITEVILLE SUNNY 94 72 48 SW9 29.95F HX 102 $$ AMZ130-135-150-152-154-156-158-170-250-252-270-ANZ085-086-088-633-658-670-281800- MARINE OBSERVATIONS STATION/POSITION TIME TEMP WIND PRES WAVE SWELL AIR SEA DIR/SP/G HT/PER HT/PER (UTC) (F) (DEG/KT/KT) (MB) (FT/S) (FT/S) CHESAPEAKE LIGHT NOT AVBL 64 E VA BEACH 1650 83 84 220/ 10/ 12 1012.8 2/ 8 2/ 8 DUCK 1700 82 76 140/ 9/ 9 1012.0 2 E DUCK 1611 80 N/A 1/ 8 OREGON INLET 1700 86 84 180/ 11/ 12 1012.8 13E OREGON INLT 1700 83 N/A 2/ 8 2/ 8 HATTERAS CG 1700 86 83 210/ 7/ 12 1013.2 DIAMOND BUOY 1650 85 85 230/ 12/ 16 1013.6 2/ 6 2/ 6 CAPE LOOKOUT 1700 86 220/ 10/ 13 1013.5 BEAUFORT LAB 1700 88 83 220/ 6/ 11 1013.1 30 SE NEW RVR IN 1708 86 85 230/ 12/ 17 1014.2 30 SE NEW RVR IN 1625 85 N/A 4/ 6 27 SE WRIGHTSVLE 1708 85 85 220/ 12/ 16 1014.7 5 SE WRIGHTSVLE 1708 84 82 200/ 10/ 12 1014.9 225 S CAPE HAT 1650 82 85 260/ 16/ 17 1016.5 3/ 6 2/ 8 41 SE CHARLESTON 1650 85 86 260/ 8/ 10 1016.0 4/ 6 3/ 6 $$

USA.gov is the U.S. government's official web portal to all federal, state and local government web resources and services.